Station HIVT2 - 8775223 - Harbor Island Visibility, TX Image indicating link to RSS feed of recent meteorological observations for station HIVT2


Conditions at HIVT2 as of
(9:18 pm CDT on 04/14/2024)
0218 GMT on 04/15/2024:
     

Click on the graph icon in the table below to see a time series plot of the last five days of that observation.

5-day plot - Atmospheric Pressure Atmospheric Pressure (PRES):29.92 in
5-day plot - Air Temperature Air Temperature (ATMP): 73.4 °F
5-day plot - Dew Point Dew Point (DEWP): 72.1 °F
5-day plot - Visibility Visibility (VIS): 5.9 nmi
NOS Water Level Observation Network Water Level
Previous observations
TIME
(CDT)
5-day plot - Wind Direction
WDIR
 
5-day plot - Wind Speed
WSPD
kts
5-day plot - Wind Gust
GST
kts
5-day plot - Wave Height
WVHT
ft
5-day plot - Dominant Wave Period
DPD
sec
5-day plot - Average Wave Period
APD
sec
5-day plot - Mean Wave Direction
MWD
 
5-day plot - Atmospheric Pressure
PRES
in
5-day plot - Pressure Tendency
PTDY
in
5-day plot - Air Temperature
ATMP
°F
5-day plot - Water Temperature
WTMP
°F
5-day plot - Dew Point
DEWP
°F
5-day plot - Salinity
SAL
psu
5-day plot - Visibility
VIS
nmi
5-day plot - Tide (above MLLW)
TIDE
ft
2024-04-14 09:12 pm-------29.93- 73.6- 72.5- 5.9-
2024-04-14 09:06 pm-------29.92- 73.6- 72.5- 5.9-
2024-04-14 09:00 pm-------29.92+0.01 73.6- 72.5- 5.9-
2024-04-14 08:54 pm-------29.92- 73.6- 72.5- 5.9-
2024-04-14 08:48 pm-------29.92- 73.6- 72.7- 5.9-
2024-04-14 08:42 pm-------29.92- 73.6- 72.7- 5.9-
2024-04-14 08:36 pm-------29.91- 73.6- 72.7- 5.9-
2024-04-14 08:30 pm-------29.91- 73.6- 72.7- 5.9-
2024-04-14 08:24 pm-------29.92- 73.6- 72.7- 5.9-
2024-04-14 08:18 pm-------29.92- 73.6- 72.7- 5.9-
2024-04-14 08:12 pm-------29.92- 73.6- 72.7- 5.9-
2024-04-14 08:06 pm-------29.92- 73.6- 72.7- 5.9-
2024-04-14 08:00 pm-------29.91+0.00 73.8- 72.7- 5.9-
2024-04-14 07:54 pm-------29.91- 73.8- 72.7- 5.9-
2024-04-14 07:48 pm-------29.91----- 5.9-
2024-04-14 07:42 pm-------29.91----- 5.9-
2024-04-14 07:36 pm-------29.91----- 5.9-
2024-04-14 07:30 pm-------29.91- 74.1- 72.5- 5.9-
2024-04-14 07:24 pm-------29.91- 74.3- 72.7- 5.9-
2024-04-14 07:18 pm--------- 74.5- 72.9- 5.9-
2024-04-14 07:12 pm--------- 74.5- 72.7- 5.9-
2024-04-14 07:06 pm--------- 74.5- 72.7- 5.9-
2024-04-14 07:00 pm-------29.91-0.03 74.5- 72.5- 5.9-
2024-04-14 06:54 pm-------29.90- 74.7- 72.7- 5.9-
2024-04-14 06:48 pm-------29.91- 74.8- 72.7- 5.9-
2024-04-14 06:42 pm-------29.91- 75.2- 72.9- 5.9-
2024-04-14 06:36 pm-------29.91- 75.0- 72.9- 5.9-
2024-04-14 06:30 pm-------29.91- 75.0- 72.9- 5.9-
2024-04-14 06:24 pm-------29.91- 75.2- 72.9- 5.9-
2024-04-14 06:18 pm-------29.91- 75.2- 72.7- 5.9-
2024-04-14 06:00 pm-------29.91-0.05---- 5.9-
2024-04-14 05:54 pm-------29.91----- 5.9-
2024-04-14 05:48 pm-------29.91- 75.6- 72.7- 5.9-
2024-04-14 05:42 pm-------29.92- 75.7- 72.7- 5.9-
2024-04-14 05:36 pm-------29.92- 75.7- 72.7- 5.9-
2024-04-14 05:30 pm-------29.92- 75.6- 72.7- 5.9-
2024-04-14 05:24 pm-------29.92- 75.7- 72.7- 5.9-
2024-04-14 05:18 pm-------29.92- 75.6- 72.5- 5.9-
2024-04-14 05:12 pm-------29.92- 75.9- 72.7- 5.9-
2024-04-14 05:06 pm-------29.92- 75.6- 72.5- 5.9-
2024-04-14 05:00 pm-------29.92-0.08 75.6- 72.3- 5.9-
2024-04-14 04:54 pm-------29.92- 75.7- 72.3- 5.9-
2024-04-14 04:48 pm-------29.93----- 5.9-
2024-04-14 04:42 pm-------29.93----- 5.9-
2024-04-14 04:36 pm-------29.93----- 5.9-
2024-04-14 04:30 pm-------29.93----- 5.9-
2024-04-14 04:24 pm-------29.93----- 5.9-
2024-04-14 04:18 pm-------29.93- 76.1- 72.1- 5.9-
2024-04-14 04:12 pm-------29.93- 75.9- 72.1- 5.9-
2024-04-14 04:06 pm-------29.93- 75.9- 72.3- 5.9-
2024-04-14 04:00 pm-------29.94-0.07 76.1- 72.0- 5.9-
2024-04-14 03:54 pm-------29.93- 76.3- 72.3- 5.9-
2024-04-14 03:48 pm-------29.94- 76.1- 72.1- 5.9-
2024-04-14 03:42 pm-------29.94- 76.3- 72.1- 5.9-
2024-04-14 03:36 pm-------29.95- 75.7- 72.1- 5.9-
2024-04-14 03:30 pm-------29.95- 75.6- 72.1- 5.9-
2024-04-14 03:24 pm-------29.95- 75.9- 72.1- 5.9-
2024-04-14 03:18 pm-------29.95- 75.9- 72.3- 5.9-
2024-04-14 03:12 pm-------29.96- 75.7- 72.0- 5.9-
2024-04-14 03:06 pm-------29.96- 75.4- 72.0- 5.9-
2024-04-14 03:00 pm-------29.96-0.05 75.0- 72.0- 5.9-
2024-04-14 02:54 pm-------29.97- 75.0- 72.1- 5.9-
2024-04-14 02:48 pm-------29.97- 75.4- 72.1- 5.9-
2024-04-14 02:42 pm-------29.98- 75.6- 72.1- 5.9-
2024-04-14 02:36 pm-------29.98- 75.6- 71.8- 5.9-
2024-04-14 02:30 pm-------29.98- 75.6- 71.8- 5.9-
2024-04-14 02:24 pm-------29.98- 75.7- 71.8- 5.9-
2024-04-14 02:18 pm-------29.98- 75.6- 71.6- 5.9-
2024-04-14 02:12 pm-------29.99- 76.1- 71.8- 5.9-
2024-04-14 02:06 pm-------29.99- 75.6- 71.8- 5.9-
2024-04-14 02:00 pm-------30.00-0.04---- 5.9-
2024-04-14 01:54 pm-------30.00----- 5.9-
2024-04-14 01:48 pm-------30.00- 76.6- 71.4- 5.9-
2024-04-14 01:42 pm-------30.00- 76.6- 71.6- 5.9-
2024-04-14 01:36 pm-------30.00- 76.8- 71.6- 5.9-
2024-04-14 01:30 pm-------30.01- 76.8- 71.4- 5.9-
2024-04-14 01:24 pm-------30.01- 77.0- 71.6- 5.9-
2024-04-14 01:18 pm-------30.01- 77.0- 71.4- 5.9-
2024-04-14 01:12 pm-------30.01- 77.0- 71.4- 5.9-
2024-04-14 01:06 pm-------30.01- 76.6- 71.6- 5.9-
2024-04-14 01:00 pm-------30.01-0.01 76.5- 71.4- 5.9-
2024-04-14 12:54 pm-------30.01- 75.9- 71.4- 5.9-
2024-04-14 12:48 pm-------30.02- 76.3- 71.1- 5.9-
2024-04-14 12:42 pm-------30.02- 76.8- 71.1- 5.9-
2024-04-14 12:36 pm-------30.02- 76.8- 71.2- 5.9-
2024-04-14 12:30 pm-------30.02- 76.3- 70.9- 5.9-
2024-04-14 12:24 pm-------30.02- 76.3- 71.1- 5.9-
2024-04-14 12:18 pm-------30.01- 76.3- 70.9- 5.9-
2024-04-14 12:12 pm-------30.02- 76.6- 71.1- 5.9-
2024-04-14 12:06 pm-------30.02- 76.5- 70.9- 5.9-
2024-04-14 12:00 pm-------30.02+0.00 76.1- 70.9- 5.9-
2024-04-14 11:54 am-------30.04- 75.7- 70.2- 5.9-
2024-04-14 11:48 am-------30.04----- 5.9-
2024-04-14 11:42 am-------30.04----- 5.9-
2024-04-14 11:36 am-------30.04----- 5.9-
2024-04-14 11:30 am-------30.04----- 5.9-
2024-04-14 11:24 am-------30.04----- 5.9-
2024-04-14 11:18 am-------30.04- 76.3- 70.7- 5.9-
2024-04-14 11:12 am-------30.04- 76.3- 70.3- 5.9-
2024-04-14 11:06 am-------30.04- 76.3- 70.9- 5.9-
2024-04-14 11:00 am-------30.04+0.03 76.1- 70.7- 5.9-
2024-04-14 10:54 am-------30.04- 75.9- 70.5- 5.9-
2024-04-14 10:48 am-------30.03- 75.9- 70.3- 5.9-
2024-04-14 10:42 am-------30.03- 75.9- 70.5- 5.9-
2024-04-14 10:36 am-------30.03- 75.4- 70.2- 5.9-
2024-04-14 10:30 am-------30.03----- 5.9-
2024-04-14 10:24 am-------30.03----- 5.9-
2024-04-14 10:18 am-------30.02----- 5.9-
2024-04-14 10:12 am-------30.02----- 5.9-
2024-04-14 10:06 am-------30.02----- 5.9-
2024-04-14 10:00 am-------30.02+0.03 75.2- 70.2- 5.9-
2024-04-14 09:54 am-------30.02- 74.8- 70.2- 5.9-
2024-04-14 09:48 am-------30.02- 74.8- 70.2- 5.9-
2024-04-14 09:42 am-------30.02- 74.8- 70.2- 5.9-
2024-04-14 09:36 am-------30.02- 74.7- 70.2- 5.9-
2024-04-14 09:30 am-------30.02- 74.5- 70.2- 5.9-
2024-04-14 09:24 am-------30.02- 74.5- 70.3- 5.9-
2024-04-14 09:18 am-------30.02- 74.1- 70.0- 5.9-
2024-04-14 09:12 am-------30.02- 74.1- 70.0- 5.9-
2024-04-14 09:06 am-------30.01- 73.9- 69.8- 5.9-
2024-04-14 09:00 am-------30.02+0.02---- 5.9-
2024-04-14 08:54 am-------30.01----- 5.9-
2024-04-14 08:48 am-------30.01- 73.6- 70.9- 5.9-
2024-04-14 08:42 am-------30.01- 73.4- 71.1- 5.9-
2024-04-14 08:36 am-------30.01- 73.4- 71.2- 5.9-
2024-04-14 08:30 am-------30.01----- 5.9-
2024-04-14 08:24 am-------30.01----- 5.9-
2024-04-14 08:18 am-------30.01- 73.0- 71.4- 5.9-
2024-04-14 08:12 am-------30.01- 72.9- 71.2- 5.9-
2024-04-14 08:06 am-------30.01- 72.9- 71.2- 5.9-
2024-04-14 08:00 am-------30.01- 72.7- 71.1- 5.9-
2024-04-14 07:54 am-------30.00- 72.7- 71.1- 5.9-
2024-04-14 07:48 am-------30.00- 72.7- 71.1- 5.9-
2024-04-14 07:42 am-------30.00- 72.7- 70.9- 5.9-
2024-04-14 07:36 am-------30.00- 72.7- 70.9- 5.9-
2024-04-14 07:30 am-------30.00----- 5.9-
2024-04-14 07:24 am-------30.00----- 5.9-
2024-04-14 07:18 am-------30.00- 72.7- 70.5- 5.9-
2024-04-14 07:12 am-------30.00- 72.7- 70.7- 5.9-
2024-04-14 07:06 am-------30.00- 72.5- 70.7- 5.9-
2024-04-14 07:00 am-------30.00+0.00---- 5.9-
2024-04-14 06:54 am-------30.00----- 5.9-
2024-04-14 06:48 am-------30.00----- 5.9-
2024-04-14 06:42 am-------29.99----- 5.9-
2024-04-14 06:36 am-------29.99----- 5.9-
2024-04-14 06:30 am-------30.00- 72.5- 70.7- 5.9-
2024-04-14 06:24 am-------29.99- 72.5- 70.7- 5.9-
2024-04-14 06:18 am-------30.00----- 5.9-
2024-04-14 06:12 am-------30.00----- 5.9-
2024-04-14 06:06 am-------30.00----- 5.9-
2024-04-14 06:00 am-------29.99-0.02 72.5- 70.5- 5.9-
2024-04-14 05:54 am-------29.99- 72.5- 70.5- 5.9-
2024-04-14 05:48 am-------30.00----- 5.9-
2024-04-14 05:42 am-------30.00----- 5.9-
2024-04-14 05:36 am-------30.00----- 5.9-
2024-04-14 05:30 am-------30.00- 72.5- 70.3- 5.9-
2024-04-14 05:24 am-------29.99- 72.3- 70.2- 5.9-
2024-04-14 05:18 am-------29.99- 72.3- 70.2- 5.9-
2024-04-14 05:12 am-------29.99- 72.3- 70.2- 5.9-
2024-04-14 05:06 am-------29.99- 72.3- 70.2- 5.9-
2024-04-14 05:00 am--------- 72.5- 70.3- 5.9-
2024-04-14 04:54 am--------- 72.5- 70.3- 5.9-
2024-04-14 04:48 am--------- 72.3- 70.2- 5.9-
2024-04-14 04:42 am--------- 72.5- 70.3- 5.9-
2024-04-14 04:36 am--------- 72.3- 70.2- 5.9-
2024-04-14 04:30 am-------29.99----- 5.9-
2024-04-14 04:24 am-------29.99----- 5.9-
2024-04-14 04:18 am-------29.99- 72.3- 70.5- 5.9-
2024-04-14 04:12 am-------29.99- 72.1- 70.3- 5.9-
2024-04-14 04:06 am-------30.00- 72.1- 70.3- 5.9-
2024-04-14 04:00 am-------30.00-0.04 72.1- 70.3- 5.9-
2024-04-14 03:54 am-------30.00- 72.1- 70.3- 5.9-
2024-04-14 03:48 am-------30.00- 72.3- 70.5- 5.9-
2024-04-14 03:42 am-------30.01- 72.3- 70.5- 5.9-
2024-04-14 03:36 am-------30.01- 72.1- 70.3- 5.9-
2024-04-14 03:30 am-------30.01- 72.1- 70.3- 5.9-
2024-04-14 03:24 am-------30.01- 72.1- 70.3- 5.9-
2024-04-14 03:18 am-------30.01- 72.3- 70.3- 5.9-
2024-04-14 03:12 am-------30.01- 72.3- 70.2- 5.9-
2024-04-14 03:06 am-------30.01- 72.1- 70.0- 5.9-
2024-04-14 03:00 am-------30.01-0.04 72.3- 70.3- 5.9-
2024-04-14 02:54 am-------30.01- 72.3- 70.2- 5.9-
2024-04-14 02:48 am-------30.01- 72.3- 70.2- 5.9-
2024-04-14 02:42 am-------30.02- 72.3- 70.0- 5.9-
2024-04-14 02:36 am-------30.02- 72.3- 70.0- 5.9-
2024-04-14 02:30 am-------30.03- 72.3- 69.8- 5.9-
2024-04-14 02:24 am-------30.03- 72.3- 69.8- 5.9-
2024-04-14 02:18 am-------30.03- 72.3- 69.8- 5.9-
2024-04-14 02:12 am-------30.03- 72.3- 69.8- 5.9-
2024-04-14 02:06 am-------30.03- 72.3- 69.8- 5.9-
2024-04-14 02:00 am-------30.03-0.03 72.3- 69.6- 5.9-
2024-04-14 01:54 am-------30.03- 72.5- 69.8- 5.9-
2024-04-14 01:48 am-------30.03- 72.5- 69.6- 5.9-
2024-04-14 01:42 am-------30.03- 72.5- 69.6- 5.9-
2024-04-14 01:36 am-------30.03- 72.5- 69.6- 5.9-
2024-04-14 01:30 am-------30.04- 72.5- 69.4- 5.9-
2024-04-14 01:24 am-------30.03- 72.5- 69.4- 5.9-
2024-04-14 01:18 am-------30.03- 72.5- 69.4- 5.9-
2024-04-14 01:12 am-------30.03- 72.5- 69.6- 5.9-
2024-04-14 01:06 am-------30.04- 72.5- 69.4- 5.9-
2024-04-14 01:00 am-------30.04-0.03 72.5- 69.4- 5.9-
2024-04-14 12:54 am-------30.04- 72.7- 69.6- 5.9-
2024-04-14 12:48 am-------30.04- 72.5- 69.4- 5.9-
2024-04-14 12:42 am-------30.04- 72.7- 69.4- 5.9-
2024-04-14 12:36 am-------30.04- 72.7- 69.4- 5.9-
2024-04-14 12:30 am-------30.05- 72.7- 69.4- 5.9-
2024-04-14 12:24 am-------30.05- 72.7- 69.4- 5.9-
2024-04-14 12:18 am-------30.04- 72.7- 69.6- 5.9-
2024-04-14 12:12 am-------30.04- 72.5- 69.6- 5.9-
2024-04-14 12:06 am-------30.05- 72.5- 69.8- 5.9-
2024-04-14 12:00 am-------30.05+0.00 72.7- 70.0- 5.9-
2024-04-13 11:54 pm-------30.05- 72.7- 69.8- 5.9-
2024-04-13 11:48 pm-------30.05- 72.7- 70.0- 5.9-
2024-04-13 11:42 pm-------30.05- 72.7- 70.0- 5.9-
2024-04-13 11:36 pm-------30.05- 72.5- 70.0- 5.9-
2024-04-13 11:30 pm-------30.06- 72.7- 70.2- 5.9-
2024-04-13 11:24 pm-------30.06- 72.7- 70.2- 5.9-
2024-04-13 11:18 pm-------30.06- 72.7- 70.0- 5.9-
2024-04-13 11:12 pm-------30.05- 72.7- 69.8- 5.9-
2024-04-13 11:06 pm-------30.06- 72.9- 69.6- 5.9-
2024-04-13 11:00 pm-------30.06+0.00 72.9- 69.4- 5.9-
2024-04-13 10:54 pm-------30.06- 72.9- 69.4- 5.9-
2024-04-13 10:48 pm-------30.06- 72.9- 69.4- 5.9-
2024-04-13 10:42 pm-------30.06- 72.9- 69.4- 5.9-
2024-04-13 10:36 pm-------30.06- 72.9- 69.4- 5.9-
2024-04-13 10:30 pm-------30.06- 72.9- 69.3- 5.9-
2024-04-13 10:24 pm-------30.06- 72.9- 69.1- 5.9-
2024-04-13 10:18 pm-------30.06- 72.9- 69.1- 5.9-
2024-04-13 10:12 pm-------30.06- 72.9- 68.9- 5.9-
2024-04-13 10:06 pm-------30.06- 72.9- 68.9- 5.9-
2024-04-13 10:00 pm-------30.06-0.01 72.9- 68.9- 5.9-
2024-04-13 09:54 pm-------30.07- 72.9- 68.9- 5.9-
2024-04-13 09:48 pm-------30.07- 72.9- 68.9- 5.9-
2024-04-13 09:42 pm-------30.07- 72.9- 68.9- 5.9-
2024-04-13 09:36 pm-------30.07- 72.9- 68.9- 5.9-
2024-04-13 09:30 pm-------30.07- 72.9- 68.7- 5.9-
2024-04-13 09:24 pm-------30.07- 72.9- 68.5- 5.9-
2024-04-13 09:18 pm-------30.07- 72.9- 68.4- 5.9-
2024-04-13 09:12 pm-------30.07- 72.9- 68.4- 5.9-
2024-04-13 09:06 pm-------30.06- 72.9- 68.2- 5.9-
2024-04-13 09:00 pm-------30.06-0.02 72.9- 68.2- 5.9-
2024-04-13 08:54 pm-------30.06- 72.9- 68.2- 5.9-